OpenBCM V1.13 (Linux)

Packet Radio Mailbox

DB0FHN

[JN59NK Nuernberg]

 Login: GUEST





  
LU9DCE > KEP      26.06.19 20:09l 245 Lines 12034 Bytes #999 (0) @ WW
BID : 27568_LU9DCE
Read: DJ6UX DF7EAV GUEST
Subj: TLE 26 06
Path: DB0FHN<OE2XZR<OE5XBR<OE1XAB<HG8LXL<XE1FH<VE2PKT<N3HYM<LU9DCE
Sent: 190626/1801Z 27568@LU9DCE.TOR.BA.ARG.SOAM LinBPQ6.0.18

            __    _  _  ___  ____   ___  ____    ____  ____  ____
           (  )  / )( \/ _ \(    \ / __)(  __)  (  _ \(  _ \/ ___)
           / (_/\) \/ (\__  )) D (( (__  ) _)    ) _ ( ) _ (\___ \
           \____/\____/(___/(____/ \___)(____)  (____/(____/(____/
               ESTACION DE PACKET RADIO - BUENOS AIRES (GF05OM)
                   BOLETINES INFORMATIVOS PROGRAMADOS (BIP)
                  SLACKWARE LINUX - HELLOCODELINUX@GMAIL.COM

+----------------------------------------------------------------------------+
OSCAR 7
1  7530U 74089B   19177.45723444 -.00000030  00000-0  96862-4 0  9990
2  7530 101.7440 145.0383 0012048 334.4770 136.2732 12.53638684 41499
OSCAR 11 (UoSAT 2)
1 14781U 84021B   19176.85178913  .00000046  00000-0  11817-4 0  9994
2 14781  97.6101 201.2318 0007116 301.9314  58.1207 14.83091804899827
OSCAR 19 (LUSAT)
1 20442U 90005G   19177.07082271 -.00000012  00000-0  11826-4 0  9994
2 20442  98.6488 119.0584 0012695 124.3498 235.8888 14.32927664537437
EYESAT A
1 22825U 93061C   19177.19624963 -.00000006  00000-0  15534-4 0  9992
2 22825  98.9031 166.0042 0008076 344.8742  15.2197 14.30061063343024
ITAMSAT
1 22826U 93061D   19176.77646579 -.00000007 +00000-0 +15338-4 0  9996
2 22826 098.8971 165.5655 0008400 334.0515 026.0244 14.30394621342910
RADIO ROSTO
1 23439U 94085A   19176.78872031 -.00000032 +00000-0 +29094-3 0  9990
2 23439 064.8173 104.6481 0146173 111.8210 249.8335 11.27568230008694
JAS 2
1 24278U 96046B   19176.72225181 -.00000002 +00000-0 +35043-4 0  9992
2 24278 098.5380 329.1795 0349641 221.6540 135.7485 13.53092032128508
TECHSAT 1B
1 25397U 98043D   19177.42068890 -.00000024  00000-0  88504-5 0  9999
2 25397  98.6890 117.4710 0001983  48.9267 311.2083 14.23666967 88976
ISS (ZARYA)
1 25544U 98067A   19177.52573256  .00005779  00000-0  10452-3 0  9993
2 25544  51.6416 314.9549 0007871  87.7824 358.1277 15.51245479176706
PCSAT
1 26931U 01043C   19176.84168263 -.00000034  00000-0  18782-4 0  9999
2 26931  67.0517 345.2297 0006770 278.8554  81.1781 14.30545417925994
SAUDISAT 1C
1 27607U 02058C   19177.00191347 -.00000051  00000-0  13822-4 0  9994
2 27607  64.5555  27.2471 0081118 255.1366 104.0741 14.75554329888112
CUTE-1
1 27844U 03031E   19176.68840022  .00000025  00000-0  30948-4 0  9991
2 27844  98.6832 184.7971 0010173  18.2968 341.8574 14.22182324829286
CUBESAT XI 4
1 27848U 03031J   19176.96402896  .00000025  00000-0  31003-4 0  9992
2 27848  98.6910 185.5704 0010289  28.3481 331.8254 14.21776999829178
MOZHAYETS 4
1 27939U 03042A   19177.48377721  .00000069  00000-0  20969-4 0  9998
2 27939  98.0416 313.1478 0013918  47.4391 312.7991 14.66786517841687
CUBESAT XI 5
1 28895U 05043F   19176.68641883  .00000071  00000-0  22550-4 0  9998
2 28895  97.9602 319.1779 0016039 334.0339  26.0057 14.63670009728506
CUTE-1.7+APD II
1 32785U 08021C   19177.48437728  .00000121  00000-0  18647-4 0  9998
2 32785  97.5491 176.8311 0011744 233.1720 126.8421 14.88313088604844
DELFI C3
1 32789U 08021G   19177.12135501  .00000397  00000-0  30567-4 0  9997
2 32789  97.4636 226.5627 0014067  99.5677 260.7141 15.06963056608081
SEEDS
1 32791U 08021J   19177.48975180  .00000295  00000-0  35314-4 0  9996
2 32791  97.5275 182.8181 0012537 205.7826 154.2769 14.90824517605271
YUBELEINY
1 32953U 08025A   19177.37106823  .00000021  00000-0  75656-4 0  9998
2 32953  82.5014 139.9890 0020371 110.0171 250.3109 12.43090089503269
PRISM (HITOMI)
1 33493U 09002B   19177.08344208  .00000049  00000-0  99013-5 0  9997
2 33493  98.1226  98.3192 0015458 152.9305 207.2725 14.96662338566259
KKS-1 (KISEKI)
1 33499U 09002H   19177.47370960  .00000046  00000-0  14841-4 0  9992
2 33499  98.3500  16.4295 0009201 173.7133 186.4192 14.75443469560378
SWISSCUBE
1 35932U 09051B   19176.74255004  .00000081  00000-0  29348-4 0  9997
2 35932  98.5887 342.9218 0008509 137.6058 222.5797 14.56286759517808
BEESAT
1 35933U 09051C   19176.74508657  .00000064  00000-0  25489-4 0  9996
2 35933  98.5913 344.6859 0006486 147.2837 212.8762 14.56375610517914
ITUPSAT 1
1 35935U 09051E   19177.15054564  .00000065  00000-0  26152-4 0  9996
2 35935  98.6024 345.3412 0008827 146.1926 213.9834 14.55535608517726
XIWANG-1 (HOPE-1)
1 36122U 09072B   19177.18419320 -.00000039  00000-0  94981-5 0  9994
2 36122 100.0715 179.2120 0007508 335.4436  24.6343 13.16350045457860
TISAT 1
1 36799U 10035E   19177.46651776  .00000074  00000-0  13591-4 0  9994
2 36799  98.1567 329.8767 0013525  64.0209 296.2399 14.91106670485924
JUGNU
1 37839U 11058B   19176.52024628 +.00000293 +00000-0 +14546-4 0  9996
2 37839 019.9618 293.3727 0019129 042.3793 040.4336 14.12652730398112
SRMSAT
1 37841U 11058D   19176.49736594 +.00000291 +00000-0 +14903-4 0  9992
2 37841 019.9738 350.4241 0011818 271.7492 114.7242 14.10633965397561
M-CUBED/EXP-1 PRIME
1 37855U 11061F   19177.30960627  .00000889  00000-0  52248-4 0  9995
2 37855 101.7142  76.8184 0173788  54.2327 307.4904 15.05425668417929
HORYU 2
1 38340U 12025D   19177.10181633  .00000094  00000-0  21778-4 0  9998
2 38340  98.3283 215.9151 0012918 100.0655 260.2011 14.75721530382252
STRAND 1
1 39090U 13009E   19177.45556528  .00000001  00000-0  15515-4 0  9991
2 39090  98.4880  23.2841 0007909 265.9878  94.0404 14.35087790331507
SOMP
1 39134U 13015E   19176.85967239  .00000458  00000-0  30399-4 0  9998
2 39134  64.8634 357.2153 0031031 302.7201  57.0936 15.20162762341686
BEESAT 3
1 39135U 13015F   19176.92635900  .00000548  00000-0  37052-4 0  9997
2 39135  64.8692  15.3977 0022016 321.2637  38.6910 15.17472617341348
BEESAT 2
1 39136U 13015G   19175.91123271 +.00000576 +00000-0 +38983-4 0  9994
2 39136 064.8700 022.5139 0019509 300.3072 059.6124 15.16898771340726
CUBEBUG 1
1 39153U 13018D   19177.26487298  .00000088  00000-0  18435-4 0  9996
2 39153  97.9786 275.3471 0017280 169.3537 190.8045 14.80568566332936
ZACUBE
1 39417U 13066B   19177.00129961  .00000129  00000-0  22592-4 0  9999
2 39417  97.5618 190.0920 0059294  11.6327 348.6240 14.81116794302129
TRITON 1
1 39427U 13066M   19177.43127241  .00000146  00000-0  31049-4 0  9992
2 39427  97.6762 154.3311 0114761 140.0916 220.8798 14.67842501299478
GOMX 1
1 39430U 13066Q   19177.37083783  .00000107  00000-0  28809-4 0  9998
2 39430  97.7466 133.4178 0149817 229.7901 129.0115 14.59254179297720
HUMSAT D
1 39433U 13066T   19177.12413544  .00000171  00000-0  22052-4 0  9991
2 39433  97.5529 224.3265 0029094 276.1737  83.6169 14.92193420304186
CUBEBUG 2
1 39440U 13066AA  19177.00566830  .00000141  00000-0  26390-4 0  9999
2 39440  97.6018 175.0104 0081708  61.7737 299.1693 14.75854847301057
FUNCUBE 1
1 39444U 13066AE  19176.99782683  .00000156  00000-0  25509-4 0  9993
2 39444  97.5601 192.0415 0058219   5.5682 354.6167 14.81935560301016
UWE-3
1 39446U 13066AG  19177.47100197  .00000122  00000-0  22882-4 0  9997
2 39446  97.5808 182.4790 0071007  35.7932 324.8009 14.78389470300415
SPROUT
1 39770U 14029E   19177.50274581  .00000328  00000-0  42381-4 0  9994
2 39770  97.8861 280.7456 0010627  63.0422 297.1856 14.87342707275995
UNISAT 6
1 40012U 14033C   19177.48254816  .00000079  00000-0  19117-4 0  9990
2 40012  97.7569  43.7585 0059833  73.1238 287.6520 14.73978829269832
DUCHIFAT 1
1 40021U 14033M   19177.33079305  .00000310  00000-0  37482-4 0  9995
2 40021  97.9241 101.9496 0013801  30.7368 329.4656 14.90630089272681
QB50P1
1 40025U 14033R   19176.35332777  .00000127  00000-0  19468-4 0  9995
2 40025  97.9060  96.0270 0013536  42.6566 317.5699 14.88943674272314
CHUBUSAT 1
1 40300U 14070C   19177.21527719  .00000368  00000-0  19010-4 0  9990
2 40300  97.3259 251.2073 0021025  32.4197  28.1827 15.22087357257169
NUDT-PHONESAT
1 40900U 15049B   19177.40024612  .00001262  00000-0  56922-4 0  9995
2 40900  97.4365 186.6583 0013556 150.7319 317.5613 15.22786108208839
ZDPS 2A
1 40901U 15049C   19177.39322383  .00000534  00000-0  29764-4 0  9995
2 40901  97.4591 183.1055 0013622 168.5479 297.2814 15.17724286208408
ZDPS 2B
1 40902U 15049D   19177.48862278  .00000605  00000-0  33447-4 0  9990
2 40902  97.4536 180.7053 0013723 165.5427 317.8992 15.17538900208391
XW-2A
1 40903U 15049E   19177.43769450  .00001286  00000-0  32240-4 0  9990
2 40903  97.3362 220.2463 0015451 114.4751 341.5827 15.41851794211443
KAITUO 1A
1 40904U 15049F   19177.40056324  .00000449  00000-0  27266-4 0  9999
2 40904  97.4661 179.2769 0014494 174.0609 319.4094 15.15364187208160
OBJECT G
1 40905U 15049G   19177.48395105  .00000206  00000-0  14796-4 0  9996
2 40905  97.4700 176.9073 0015750 169.3475 311.0144 15.14289657208050
XW-2C
1 40906U 15049H   19177.39534105  .00000561  00000-0  32900-4 0  9993
2 40906  97.4671 179.3462 0015278 165.5609 302.4073 15.15673859208168
XW-2D
1 40907U 15049J   19177.44336127  .00000143  00000-0  10942-4 0  9992
2 40907  97.4647 179.0702 0014778 162.7992 334.2764 15.15858056208180
LILACSAT 2
1 40908U 15049K   19177.40209356  .00000468  00000-0  29474-4 0  9992
2 40908  97.4778 177.8793 0015970 169.5089 327.6047 15.13802417207973
XW-2F
1 40910U 15049M   19177.45796881  .00000654  00000-0  36133-4 0  9991
2 40910  97.4611 181.0740 0015505 155.9976 308.1844 15.17291396208195
XW-2B
1 40911U 15049N   19177.40550899  .00000583  00000-0  33947-4 0  9995
2 40911  97.4673 179.6827 0014209 163.6539 306.9454 15.15791614208070
KAITUO 1B
1 40912U 15049P   19177.48163334  .00000754  00000-0  38541-4 0  9993
2 40912  97.4492 184.7342 0015922 139.4101 349.0921 15.19601826208490
TIANWANG 1C (TW-1C)
1 40926U 15051B   19177.50095325  .00006681  00000-0  98102-4 0  9992
2 40926  97.1343 223.6654 0007507 359.0228 109.1560 15.55809253211375
